Theta_e
325 322 320 316 315 318 317 317 315 315 315 313 312 308 306 304 303 302 301 299 297 297 296 295 295 294 293 293 293 292 292 291 291 291 291 290 290 290
327 323 321 319 314 317 318 317 317 317 317 317 315 312 308 306 303 303 302 301 299 297 296 296 295 294 294 293 293 293 292 292 291 291 291 291 290 290
326 324 322 322 314 316 317 318 317 316 316 316 316 313 312 307 304 302 302 302 301 299 297 297 296 295 295 294 293 293 292 292 291 291 291 291 290 290
326 325 323 322 316 314 316 317 317 316 316 316 315 313 313 309 306 304 302 302 301 300 299 297 296 296 296 295 294 294 293 293 292 291 291 291 291 290
328 327 325 322 318 314 313 315 315 316 317 317 316 315 313 311 307 305 303 303 302 301 300 299 297 296 296 296 295 295 294 293 292 292 291 291 291 291
328 327 326 323 318 318 316 315 314 316 317 317 316 316 314 311 308 306 305 303 303 302 301 299 298 297 296 296 296 295 295 294 294 293 292 292 292 291
327 327 327 322 321 321 320 319 316 315 317 317 316 315 315 311 309 307 306 306 305 302 303 301 299 299 298 297 296 296 296 295 295 294 294 293 292 292
327 327 328 325 322 322 322 320 319 318 315 316 316 315 315 313 310 308 306 306 305 305 303 301 302 300 299 299 298 297 296 295 295 295 294 294 293 293
327 327 329 327 323 322 323 322 319 318 316 314 316 316 315 313 311 309 307 306 305 304 305 303 302 302 300 300 300 298 297 296 295 294 294 294 294 293
327 327 328 328 324 321 323 323 322 319 316 312 313 316 315 313 311 309 308 306 306 305 305 304 302 301 300 299 301 299 297 297 296 295 294 294 294 294
328 327 327 328 325 319 321 323 321 318 317 314 313 314 314 313 310 308 307 306 306 304 303 303 301 300 299 298 298 298 297 297 297 296 296 295 294 294
328 326 326 326 324 320 320 322 321 317 315 314 313 313 314 314 312 306 304 304 303 303 301 302 300 299 298 298 298 297 297 297 297 296 296 296 296 295
327 326 324 324 324 320 318 323 320 318 315 314 313 312 312 312 310 306 301 300 300 301 300 299 299 299 298 297 297 296 296 296 296 296 296 295 295 295
326 325 323 320 319 318 320 322 321 319 317 316 315 314 312 308 305 304 301 299 298 298 300 301 301 300 299 297 297 296 296 296 295 295 295 295 295 294
323 322 322 321 319 320 321 322 321 320 318 317 316 315 312 306 305 303 300 299 299 298 301 303 303 303 301 299 297 296 296 296 295 295 295 295 294 294
320 321 322 321 321 320 319 319 320 320 318 317 316 315 310 306 304 302 301 300 301 299 299 299 301 302 301 299 297 296 296 296 295 295 295 295 295 294
319 321 321 321 320 320 318 315 312 316 317 316 313 310 307 306 304 303 302 302 303 302 302 300 299 299 299 298 297 296 295 295 295 295 295 296 296 295
316 320 319 319 318 316 314 311 308 307 308 309 309 306 305 304 304 303 303 303 302 301 301 300 300 299 298 297 296 296 295 296 296 295 295 295 295 296
315 317 316 316 313 312 311 309 307 306 305 305 305 305 304 303 302 302 302 302 300 299 300 299 298 298 298 298 298 298 298 299 299 298 298 298 299 299
310 311 311 311 310 309 307 307 307 306 306 305 304 303 303 302 301 301 300 301 300 299 300 299 300 300 298 298 299 299 299 299 298 298 298 298 298 298
306 306 306 307 307 306 309 307 306 306 306 306 306 306 305 305 303 302 300 300 299 299 299 299 300 299 299 299 299 299 299 299 297 297 296 296 295 295
304 304 304 305 306 306 305 305 305 304 304 304 303 302 301 300 300 300 299 298 298 298 298 298 298 298 298 298 298 298 298 296 294 294 294 293 293 293
301 301 302 302 302 302 302 302 302 301 300 300 300 300 299 299 300 298 297 297 297 296 297 297 297 297 296 296 295 294 293 293 293 293 293 293 293 293
Wind_Speed
34 31 25 21 20 17 15 15 14 13 15 17 14 17 17 17 19 15 15 13 13 12 12 13 13 13 13 13 14 13 13 13 11 11 11 9 8 8
36 33 32 27 24 22 20 18 17 15 13 11 17 16 14 16 19 17 16 18 15 15 14 14 14 14 15 15 15 16 15 15 14 13 13 12 11 10
35 36 33 30 29 26 23 21 18 16 16 14 11 18 19 17 20 19 19 20 20 18 16 15 16 16 16 17 17 17 17 17 16 16 15 15 14 13
40 38 35 32 33 31 27 26 22 20 19 19 15 18 21 20 21 23 20 21 21 21 18 17 18 18 18 19 18 18 19 18 19 18 17 17 16 16
43 43 41 36 35 37 36 29 28 23 22 20 19 19 21 21 21 24 24 22 24 23 24 21 21 21 21 21 21 20 19 20 20 20 19 19 19 19
42 44 42 41 39 37 36 35 29 25 24 23 21 21 22 21 22 22 25 25 24 21 27 24 24 24 24 24 24 23 21 21 21 22 22 21 21 22
44 45 44 42 39 37 37 35 32 31 27 24 24 23 23 21 26 24 25 23 25 25 25 28 26 24 26 26 26 25 23 22 22 24 24 24 23 24
48 47 45 44 41 39 39 35 35 35 32 29 27 26 26 26 24 27 25 25 27 25 27 28 27 29 26 26 22 20 20 22 23 24 25 26 25 26
48 48 48 46 45 44 43 39 39 38 34 33 32 29 26 27 28 27 27 27 28 25 21 27 25 29 27 26 27 25 22 22 23 25 26 27 27 27
49 50 49 47 48 46 44 42 42 43 42 40 38 33 30 28 29 30 31 28 27 26 24 31 28 30 27 27 27 28 26 25 26 26 26 27 27 29
50 48 47 46 46 47 41 41 41 44 46 42 41 41 40 33 32 29 31 29 32 34 30 35 36 32 31 32 31 30 30 29 28 28 29 27 26 27
45 44 46 45 47 47 40 40 41 43 43 43 43 42 41 40 39 39 35 34 36 33 36 36 40 34 32 33 31 30 31 30 27 25 24 26 26 29
46 45 45 46 49 46 42 40 42 40 39 36 40 37 38 41 43 43 42 40 40 40 37 31 36 33 34 33 35 32 30 29 29 30 31 30 30 30
48 45 47 50 48 46 44 41 37 39 37 36 40 42 40 40 40 42 41 41 43 44 37 34 36 37 36 36 39 38 38 34 31 32 32 31 31 32
41 41 39 42 42 40 40 41 38 40 42 42 45 45 42 39 38 38 38 37 39 42 38 31 36 37 38 40 40 39 39 40 38 36 34 33 32 33
38 34 36 36 35 35 32 36 40 43 45 45 46 46 41 39 37 37 38 38 38 41 39 37 38 38 41 41 41 43 42 40 35 37 38 37 36 35
42 35 37 38 39 39 37 38 39 43 46 46 43 42 40 36 33 33 34 34 32 33 36 36 38 41 42 42 43 44 43 45 45 42 39 41 39 39
47 44 40 41 40 39 36 36 40 40 42 45 45 41 39 39 34 30 26 30 31 32 29 29 33 36 39 42 41 42 43 43 41 40 38 39 41 36
38 44 37 36 33 32 32 33 38 39 37 37 40 42 41 37 35 34 34 34 33 35 42 38 31 31 35 42 39 38 38 37 34 34 35 37 42 43
24 28 27 29 28 27 27 28 33 34 33 33 33 34 33 32 33 36 39 46 47 43 43 37 37 37 37 44 45 40 32 32 33 36 37 38 41 43
10 12 16 17 18 22 20 25 28 30 30 32 33 36 39 39 38 42 44 45 46 40 39 40 38 33 34 36 39 39 37 36 34 35 37 38 39 39
6 4 1 1 4 6 10 13 15 16 20 20 21 24 25 27 29 31 34 31 30 31 31 30 30 33 32 31 29 30 33 35 29 26 26 27 33 39
10 8 6 5 3 4 6 8 9 11 13 15 16 19 21 23 23 24 26 27 27 28 29 28 27 26 25 24 24 24 22 18 16 15 14 13 14 17
Wind_Direction
227 229 224 219 217 222 219 218 212 215 229 233 218 239 234 242 251 255 260 260 260 261 263 263 263 259 258 259 260 260 261 265 270 277 282 288 295 304
230 229 233 221 217 220 220 220 223 230 247 230 230 239 247 240 254 254 255 265 259 263 263 264 264 262 261 261 261 261 260 262 265 269 275 278 280 286
226 230 232 228 212 222 218 221 225 227 233 236 229 231 258 248 245 257 257 264 267 262 263 263 266 265 264 263 262 263 262 262 264 266 270 274 275 276
226 227 233 230 222 213 219 223 227 228 230 233 234 226 260 256 247 257 254 259 264 267 260 263 264 266 266 266 263 264 266 265 264 264 267 270 273 275
228 230 233 229 229 224 218 224 230 227 230 232 236 238 258 255 248 247 258 251 257 259 264 263 264 265 266 268 267 265 266 268 266 265 266 269 271 273
230 231 233 232 233 232 229 229 224 227 228 229 233 239 249 254 246 244 250 255 253 248 266 265 263 263 263 264 267 267 266 267 268 267 267 268 269 271
233 232 233 234 237 235 235 232 226 224 223 228 232 233 238 229 240 246 243 251 262 256 251 268 270 266 264 264 266 267 269 267 267 268 269 269 269 270
235 233 234 235 235 236 237 239 235 235 227 223 230 234 237 242 243 248 247 239 239 256 263 257 255 272 276 275 271 267 268 268 268 268 270 272 271 270
236 233 236 236 236 235 238 240 236 241 242 236 231 234 239 240 242 242 246 240 246 246 258 264 252 256 265 268 274 281 278 276 272 271 272 272 272 271
236 237 239 237 238 236 237 238 238 238 239 238 239 238 240 239 243 244 248 252 249 245 240 255 259 261 263 265 263 270 277 276 277 274 272 271 272 273
233 239 240 237 236 240 237 239 240 242 243 242 244 248 249 244 239 236 238 234 240 247 238 251 260 263 264 267 265 267 276 274 272 271 273 270 271 273
229 233 234 229 234 241 235 236 241 244 241 244 242 246 249 250 248 244 244 245 246 247 251 247 261 263 267 273 273 268 267 272 270 266 265 273 272 271
221 225 229 230 233 239 238 236 244 248 246 244 252 249 249 249 249 246 244 246 252 252 257 259 262 261 260 267 274 272 271 271 270 271 273 273 273 271
218 223 230 237 236 236 238 239 241 243 241 242 244 252 251 251 251 252 251 251 251 258 261 260 261 262 262 268 272 278 281 281 275 276 277 276 273 273
226 227 225 233 238 236 237 241 240 240 240 239 249 252 255 257 257 256 257 255 253 251 245 247 258 263 266 269 271 274 279 281 283 281 279 280 281 282
218 216 225 226 233 238 236 239 236 236 240 244 249 256 257 256 251 253 255 255 255 260 256 252 251 254 262 267 272 275 275 272 278 282 285 285 283 282
212 213 221 224 229 235 237 239 239 236 236 240 243 247 251 252 248 253 250 254 252 258 264 268 263 262 262 263 267 271 273 277 280 282 282 283 283 288
209 215 226 229 234 238 241 242 245 243 242 243 244 244 245 247 246 244 244 248 252 257 257 271 276 273 269 268 264 268 273 278 281 283 283 283 284 284
213 218 225 234 241 243 244 246 249 252 250 246 245 250 250 252 253 252 245 247 250 262 271 272 268 265 267 267 269 279 279 282 282 279 278 279 284 289
207 211 218 230 239 244 242 250 250 253 256 256 256 256 256 253 252 255 256 261 268 266 268 266 272 274 262 269 280 279 277 277 273 276 279 283 282 286
212 230 237 247 251 255 263 263 260 258 261 261 261 265 263 261 258 263 265 266 270 268 267 270 273 277 274 273 268 270 272 273 277 281 285 284 288 291
73 84 125 289 313 303 272 264 261 264 262 263 267 267 265 268 267 265 269 272 267 271 276 274 266 261 260 262 270 272 280 291 286 281 280 277 278 281
51 42 26 14 336 288 269 267 270 267 265 263 262 264 261 264 269 267 267 269 268 266 268 272 271 271 276 278 280 285 294 306 315 317 315 312 300 298